Jonestown, PA

3:50 AM EST on January 17, 2017 (GMT -0500)
Muir Army Air Field

Weather History for KMUI - March, 2013

Change the Weather History Date:

Saturday, March 9, 2013

  Actual Average Record
Temperature  
Mean Temperature 47 °F -  
Max Temperature 60 °F 42 °F 79 °F (2016)
Min Temperature 31 °F 28 °F 15 °F (2007)
Degree Days  
Heating Degree Days 18    
Moisture  
Dew Point 19 °F    
Average Humidity 40    
Maximum Humidity 67    
Minimum Humidity 15    
Precipitation  
Precipitation 0.00 in - - ()
Sea Level Pressure  
Sea Level Pressure 30.30 in    
Wind  
Wind Speed 5 mph (NNE)    
Max Wind Speed 9 mph    
Max Gust Speed -    
Visibility 10 miles    
Events      
Averages and records for this station are not official NWS values.
T = Trace of Precipitation, MM = Missing Value Source: NWS Daily Summary

Daily Weather History Graph

Daily Weather History Graph

Search for Another Location

Airport or City:

Trip Planner

Search our weather history database for the weather conditions in past years. The results will help you decide how hot, cold, wet, or windy it might be!

Date:

Astronomy

Mar. 09, 2013 Rise Set
Actual Time 6:27 AM EST 6:06 PM EST
Civil Twilight 5:59 AM EST 6:34 PM EST
Nautical Twilight 5:28 AM EST 7:05 PM EST
Astronomical Twilight 4:56 AM EST 7:37 PM EST
Moon 4:50 AM EST (3/9) 4:06 PM EST (3/9)
Length of Visible Light 12h 34m
Length of Day
11h 39m
Waning Crescent, 5% of the Moon is Illuminated
Mar 9
Waning Crescent
Mar 11
New
Mar 19
First Quarter
Mar 27
Full
Apr 3
Last Quarter

Hourly Weather History & Observations

Time (EST) Temp. Windchill Dew Point Humidity Pressure Visibility Wind Dir Wind Speed Gust Speed Precip Events Conditions
12:55 AM 35.8 °F 30.9 °F 18.9 °F 50% 30.30 in 10.0 mi Variable 5.8 mph - N/A   Clear
1:55 AM 35.2 °F 31.2 °F 18.5 °F 51% 30.29 in 10.0 mi Variable 4.6 mph - N/A   Clear
2:55 AM 35.4 °F 32.6 °F 17.8 °F 49% 30.30 in 10.0 mi ESE 3.5 mph - N/A   Clear
3:55 AM 34.9 °F 27.7 °F 18.3 °F 51% 30.29 in 10.0 mi NNW 9.2 mph - N/A   Clear
4:55 AM 34.9 °F 32.0 °F 18.9 °F 52% 30.29 in 10.0 mi Variable 3.5 mph - N/A   Clear
5:55 AM 34.5 °F 28.6 °F 19.4 °F 54% 30.31 in 10.0 mi Variable 6.9 mph - N/A   Clear
6:55 AM 35.1 °F 32.2 °F 19.6 °F 53% 30.32 in 10.0 mi ENE 3.5 mph - N/A   Clear
7:55 AM 37.9 °F 34.4 °F 20.1 °F 49% 30.34 in 10.0 mi Variable 4.6 mph - N/A   Clear
8:55 AM 41.5 °F 36.4 °F 20.5 °F 43% 30.35 in 10.0 mi NE 8.1 mph - N/A   Clear
9:55 AM 46.4 °F 45.2 °F 20.1 °F 35% 30.35 in 10.0 mi Variable 3.5 mph - N/A   Clear
10:55 AM 50.5 °F - 19.2 °F 29% 30.34 in 10.0 mi NNE 6.9 mph - N/A   Clear
11:55 AM 53.4 °F - 18.7 °F 26% 30.32 in 10.0 mi Variable 6.9 mph - N/A   Clear
12:55 PM 55.9 °F - 17.8 °F 22% 30.29 in 10.0 mi Calm Calm - N/A   Clear
1:55 PM 59.0 °F - 17.1 °F 20% 30.27 in 10.0 mi Variable 3.5 mph - N/A   Clear
2:55 PM 60.8 °F - 12.2 °F 15% 30.26 in 10.0 mi North 5.8 mph - N/A   Clear
3:55 PM 60.3 °F - 12.7 °F 16% 30.25 in 10.0 mi NE 8.1 mph - N/A   Clear
4:55 PM 58.6 °F - 13.5 °F 17% 30.25 in 10.0 mi Variable 4.6 mph - N/A   Clear
5:55 PM 55.2 °F - 15.3 °F 21% 30.27 in 10.0 mi North 3.5 mph - N/A   Clear
6:55 PM 45.9 °F - 20.1 °F 36% 30.28 in 10.0 mi Calm Calm - N/A   Clear
7:55 PM 46.2 °F - 18.7 °F 33% 30.28 in 10.0 mi Calm Calm - N/A   Clear
8:55 PM 42.8 °F - 23.2 °F 46% 30.29 in 10.0 mi Calm Calm - N/A   Clear
9:55 PM 36.5 °F - 22.1 °F 56% 30.30 in 10.0 mi Calm Calm - N/A   Clear
10:55 PM 34.7 °F - 21.7 °F 59% 30.31 in 10.0 mi Calm Calm - N/A   Clear
11:55 PM 31.8 °F - 21.9 °F 67% 30.31 in 10.0 mi Calm Calm - N/A   Clear